Regional Weather Roundup
Issued by NWS Green Bay, WI

Home | Current Version | Previous Version | Graphics & Text | Print | Product List | Glossary Off
Versions: 1 2 3 4 5 6 7 8 9 10 11 12 13 14 15 16 17 18 19 20 21 22 23 24 25 26 27 28 29 30 31 32 33 34 35 36 37 38 39 40 41 42 43 44 45 46 47 48 49 50

000
ASUS43 KGRB 300711
RWRGRB

NORTH-CENTRAL AND NORTHEAST WISCONSIN REGIONAL WEATHER ROUNDUP
NATIONAL WEATHER SERVICE GREEN BAY WI
200 AM CDT TUE JUN 30 2015

WIZ005-009-010>012-018-019-300800-
NORTH CENTRAL WISCONSIN

CITY           SKY/WX    TMP DP  RH WIND       PRES   REMARKS
IRONWOOD       CLOUDY    57  57 100 N13       29.84R
MANITOWISH WTR CLOUDY    58  58 100 N7        29.85R
ARBOR VITAE    CLOUDY    59  57  92 N7        29.84S
EAGLE RIVER    MOCLDY    58  58  99 N6        29.82S
LAND O LAKES   CLOUDY    59  58  96 N8        29.84S
RHINELANDER    MOCLDY    59  57  93 N3        29.83S
PHILLIPS       PTCLDY    58  58 100 N7        29.84R FOG
ANTIGO         MOCLDY    56  56 100 NW3       29.81S FOG
TOMAHAWK       CLOUDY    57  56  97 NW3       29.83S FOG
MERRILL        MOCLDY    59  59 100 N7        29.82S FOG
$$

WIZ013-073-300800-
NORTHEAST WISCONSIN

CITY           SKY/WX    TMP DP  RH WIND       PRES   REMARKS
IRON MOUNTAIN  CLOUDY    61  59  93 NW6       29.78S
MARINETTE      CLOUDY    63  57  82 N7        29.76R
OCONTO         CLOUDY    62  62 100 N5        29.75S
$$

WIZ017-030-035>037-045-300800-
CENTRAL WISCONSIN

CITY           SKY/WX    TMP DP  RH WIND       PRES   REMARKS
MEDFORD        MOCLDY    58  58  99 N6        29.82F FOG
WAUSAU         MOCLDY    60  58  92 NW8       29.80R FOG
MOSINEE        NOT AVBL
MARSHFIELD     MOCLDY    59  55  87 NW6       29.81F FOG
WISC RAPIDS    PTCLDY    57  55  93 W5        29.81S
STEVENS POINT  PTCLDY    57  56  97 CALM      29.80S FOG
WAUPACA        CLEAR     60  60  99 W5        29.78S
SHAWANO        PTCLDY    61  59  94 CALM      29.77S FOG
CLINTONVILLE   PTCLDY   N/A N/A N/A NW6       29.78R
$$

WIZ038-039-048-051-300800-
FOX VALLEY

CITY           SKY/WX    TMP DP  RH WIND       PRES   REMARKS
NWS GREEN BAY  CLOUDY    63  61  93 W6        29.76S FOG
APPLETON       CLEAR     57  57 100 W6        29.78R
OSHKOSH        PTCLDY    61  57  87 W6        29.77S
FOND DU LAC    PTCLDY    61  58  90 W5        29.78S
$$

WIZ022-050-052-300800-
EAST CENTRAL WISCONSIN

CITY           SKY/WX    TMP DP  RH WIND       PRES   REMARKS
STURGEON BAY   CLOUDY    63  57  82 E6        29.78S
MANITOWOC      CLOUDY    63  61  93 MISG      29.75F
SHEBOYGAN      CLOUDY    62  60  93 S5        29.77S
$$

LMZ563-521-522-541>543-300800-
LAKESHORE

STATION/POSITION TIME  TEMP    WIND        PRES    VSBY  WAVE
                       AIR SEA DIR/SP/G                  HT/PER
                 (UTC) (F)     (DEG/KT/KT) (MB)    (MI)  (FT/S)
SHEBOYGAN LKSHOR 0700   62     220/  6/  6 1008.1F
KEWAUNEE LKSHORE 0600   59     170/  5/  6 1007.1F
ALGOMA MARINA    0640          200/  7/  8   N/A
NORTHPORT PIER   0600   62     100/  3/  3 1008.1R
N MID LAKE BUOY  0650   55 53  200/ 10/ 12 1008.3F         1
S GREEN BAY BUOY 0700   67 71  330/  2/  4 1008.7R
SISTER BAY LKSHO 0614   61        CALM       N/A
CHAMBERS ISLAND  0600   63      CALM  /  1 1007.8F
MENOMINEE LKSHOR 0600   65      CALM  /  1 1008.1F
$$



USA.gov is the U.S. government's official web portal to all federal, state and local government web resources and services.